KP4FJC Weather Reports


time (UTC)temp
C
wind
direction
speed
KPH
gust
KPH
rain 1hr
cm
rain 24hr
cm
rain mn
cm
humidity
%
barometer
mb
20260507221221 25 176 11.3 14.5 0.13 0.03 0.03 89 1016.9
20260507220717 25 115 3.2 4.8 0.00 0.00 0.00 90 1016.8
20260507220216 26 157 6.4 9.7 0.00 0.00 0.00 88 1016.9
20260507215711 26 88 8.0 9.7 0.00 0.00 0.00 87 1016.9
20260507215209 26 96 4.8 8.0 0.00 0.00 0.00 87 1016.4
20260507214707 27 99 8.0 9.7 0.00 0.00 0.00 86 1016.7
20260507214203 27 159 4.8 4.8 0.00 0.00 0.00 80 1016.4
20260507213659 28 120 8.0 11.3 0.00 0.00 0.00 78 1016.2
20260507213156 28 121 9.7 16.1 0.00 0.00 0.00 76 1016.3
20260507212652 29 24 4.8 4.8 0.00 0.00 0.00 75 1016.2
20260507212149 30 28 3.2 3.2 0.00 0.00 0.00 73 1016.2
20260507211646 30 102 6.4 8.0 0.00 0.00 0.00 72 1016.1
20260507211141 29 71 8.0 11.3 0.00 0.00 0.00 72 1016.0
20260507210639 28 116 8.0 9.7 0.00 0.00 0.00 74 1015.9
20260507210135 28 49 4.8 8.0 0.00 0.00 0.00 73 1016.1
20260507205632 28 40 6.4 9.7 0.00 0.00 0.00 75 1015.9
20260507205129 28 32 8.0 12.9 0.00 0.00 0.00 75 1015.9
20260507204625 28 56 8.0 11.3 0.00 0.00 0.00 74 1015.9
20260507204123 29 48 9.7 12.9 0.00 0.00 0.00 72 1015.9
20260507203621 30 46 6.4 11.3 0.00 0.00 0.00 73 1015.9
20260507203118 30 61 9.7 11.3 0.00 0.00 0.00 73 1015.9
20260507202613 30 60 11.3 12.9 0.00 0.00 0.00 73 1015.8
20260507202110 30 15 4.8 9.7 0.00 0.00 0.00 72 1015.9
20260507201605 30 65 8.0 11.3 0.00 0.00 0.00 71 1016.0
20260507201102 30 63 9.7 11.3 0.00 0.00 0.00 71 1015.8
20260507200557 30 14 9.7 16.1 0.00 0.00 0.00 74 1016.1
20260507200054 29 68 11.3 16.1 0.00 0.00 0.00 76 1016.0
20260507195551 30 352 8.0 12.9 0.00 0.00 0.00 74 1016.1
20260507195048 30 40 9.7 12.9 0.00 0.00 0.00 74 1015.9
20260507194544 30 32 11.3 17.7 0.00 0.00 0.00 74 1016.3
20260507194040 29 7 9.7 14.5 0.00 0.00 0.00 75 1015.9
20260507193538 30 41 8.0 11.3 0.00 0.00 0.00 73 1016.0
20260507193035 30 15 12.9 16.1 0.00 0.00 0.00 74 1016.1
20260507192531 30 45 11.3 16.1 0.00 0.00 0.00 73 1016.1
20260507192028 31 68 8.0 11.3 0.00 0.00 0.00 69 1016.1
20260507191523 30 11 14.5 16.1 0.00 0.00 0.00 71 1016.1
20260507191021 30 33 11.3 16.1 0.00 0.00 0.00 69 1016.2
20260507190518 30 44 20.9 25.7 0.00 0.00 0.00 71 1016.2
20260507190017 30 72 11.3 12.9 0.00 0.00 0.00 70 1016.3
20260507185514 30 359 14.5 20.9 0.00 0.00 0.00 71 1016.3
20260507185010 31 23 16.1 17.7 0.00 0.00 0.00 69 1016.1
20260507184509 30 58 11.3 16.1 0.00 0.00 0.00 70 1016.3
20260507184007 30 4 9.7 12.9 0.00 0.00 0.00 70 1016.4
20260507183502 30 47 20.9 25.7 0.00 0.00 0.00 68 1016.5
20260507183000 30 354 14.5 16.1 0.00 0.00 0.00 69 1016.3
20260507182456 30 49 17.7 24.1 0.00 0.00 0.00 70 1016.2
20260507181951 30 7 19.3 24.1 0.00 0.00 0.00 68 1016.5
20260507181448 30 30 12.9 16.1 0.00 0.00 0.00 69 1016.8
20260507180945 30 45 16.1 24.1 0.00 0.00 0.00 69 1016.5
20260507180442 30 349 12.9 16.1 0.00 0.00 0.00 70 1016.6
20260507175938 30 62 14.5 16.1 0.00 0.00 0.00 70 1016.6
20260507175434 31 37 8.0 17.7 0.00 0.00 0.00 69 1016.5
20260507174932 30 43 11.3 16.1 0.00 0.00 0.00 70 1016.8
20260507174429 30 22 16.1 20.9 0.00 0.00 0.00 71 1016.8
20260507173927 30 326 9.7 14.5 0.00 0.00 0.00 70 1016.7
20260507173424 30 19 12.9 20.9 0.00 0.00 0.00 70 1017.0
20260507172920 30 26 14.5 17.7 0.00 0.00 0.00 70 1016.9
20260507172417 30 35 17.7 24.1 0.00 0.00 0.00 69 1017.0
20260507171913 30 15 11.3 14.5 0.00 0.00 0.00 71 1017.0
20260507171409 30 11 14.5 20.9 0.00 0.00 0.00 69 1017.4
20260507170907 31 69 8.0 12.9 0.00 0.00 0.00 69 1017.6
20260507170403 30 9 11.3 16.1 0.00 0.00 0.00 69 1017.5
20260507165859 30 16 17.7 20.9 0.00 0.00 0.00 70 1017.6
20260507165355 31 21 8.0 9.7 0.00 0.00 0.00 68 1017.6
20260507164851 30 13 16.1 17.7 0.00 0.00 0.00 68 1017.6
20260507164349 30 41 14.5 17.7 0.00 0.00 0.00 70 1017.8
20260507163846 30 40 11.3 14.5 0.00 0.00 0.00 71 1017.7
20260507163343 30 13 16.1 17.7 0.00 0.00 0.00 70 1018.0
20260507162840 30 39 11.3 12.9 0.00 0.00 0.00 72 1018.1
20260507162335 30 34 12.9 14.5 0.00 0.00 0.00 73 1018.1
20260507161832 30 39 11.3 12.9 0.00 0.00 0.00 72 1017.9
20260507161329 30 40 9.7 11.3 0.00 0.00 0.00 73 1018.3
20260507160825 30 120 6.4 9.7 0.00 0.00 0.00 74 1018.0
20260507160321 30 337 9.7 11.3 0.00 0.00 0.00 74 1018.2
20260507155818 29 31 11.3 16.1 0.00 0.00 0.00 75 1018.1
20260507155314 30 45 12.9 14.5 0.00 0.00 0.00 75 1018.4
20260507154810 30 23 16.1 22.5 0.00 0.00 0.00 73 1018.5
20260507154308 30 25 8.0 11.3 0.00 0.00 0.00 74 1018.6
20260507153804 30 29 12.9 16.1 0.00 0.00 0.00 74 1018.4
20260507153301 30 342 9.7 12.9 0.00 0.00 0.00 74 1018.5
20260507152757 30 48 8.0 11.3 0.00 0.00 0.00 74 1018.5
20260507152254 30 24 1.6 3.2 0.00 0.00 0.00 72 1018.6
20260507151749 30 62 3.2 3.2 0.00 0.00 0.00 75 1018.5
20260507151246 30 37 6.4 8.0 0.00 0.00 0.00 74 1018.5
20260507150743 30 358 11.3 14.5 0.00 0.00 0.00 74 1018.5
20260507150240 30 64 4.8 12.9 0.00 0.00 0.00 75 1018.8
20260507145736 30 25 6.4 9.7 0.00 0.00 0.00 75 1018.7
20260507145232 29 72 4.8 8.0 0.00 0.00 0.00 76 1018.9
20260507144730 30 28 9.7 12.9 0.00 0.00 0.00 74 1018.7
20260507144227 30 14 1.6 1.6 0.00 0.00 0.00 70 1019.0
20260507143724 30 76 1.6 3.2 0.00 0.00 0.00 71 1018.9
20260507143221 31 42 4.8 4.8 0.00 0.00 0.00 71 1019.0
20260507142717 31 23 3.2 4.8 0.00 0.00 0.00 63 1018.8
20260507142214 31 94 8.0 11.3 0.00 0.00 0.00 63 1019.0
20260507141710 31 68 8.0 11.3 0.00 0.00 0.00 64 1019.3
20260507141207 31 336 3.2 3.2 0.00 0.00 0.00 64 1019.0
20260507140703 30 13 1.6 3.2 0.00 0.00 0.00 65 1019.0
20260507140201 31 15 4.8 8.0 0.00 0.00 0.00 64 1018.9
20260507135658 30 179 1.6 3.2 0.00 0.00 0.00 67 1019.1
20260507135155 30 66 4.8 4.8 0.00 0.00 0.00 66 1019.2
20260507134651 30 67 3.2 4.8 0.00 0.00 0.00 68 1019.1
20260507134147 30 54 6.4 8.0 0.00 0.00 0.00 69 1019.3
20260507133643 30 27 3.2 3.2 0.00 0.00 0.00 71 1019.3
20260507133141 30 21 1.6 3.2 0.00 0.00 0.00 68 1019.2
20260507132638 30 65 4.8 4.8 0.00 0.00 0.00 68 1019.1
20260507132134 30 44 6.4 8.0 0.00 0.00 0.00 69 1019.0
20260507131631 30 33 1.6 3.2 0.00 0.00 0.00 71 1018.8
20260507131129 29 58 4.8 4.8 0.00 0.00 0.00 72 1019.0
20260507130625 30 99 6.4 8.0 0.00 0.00 0.00 70 1018.9
20260507130123 29 29 0.0 0.0 0.00 0.00 0.00 73 1019.0
20260507125622 30 41 1.6 1.6 0.00 0.00 0.00 71 1019.1
20260507125119 29 66 4.8 8.0 0.00 0.00 0.00 74 1018.8
20260507124615 30 25 3.2 3.2 0.00 0.00 0.00 70 1018.7
20260507124113 28 31 1.6 1.6 0.00 0.00 0.00 74 1018.8
20260507123611 28 60 0.0 1.6 0.00 0.00 0.00 76 1019.0
20260507123108 27 96 4.8 4.8 0.00 0.00 0.00 78 1018.7
20260507122603 27 134 4.8 4.8 0.00 0.00 0.00 77 1018.8
20260507122059 28 35 3.2 4.8 0.00 0.00 0.00 77 1018.6
20260507121554 28 76 4.8 8.0 0.00 0.00 0.00 77 1018.7
20260507121051 27 104 6.4 9.7 0.00 0.00 0.00 79 1018.6
20260507120547 28 98 4.8 4.8 0.00 0.00 0.00 79 1018.7
20260507120044 28 358 4.8 4.8 0.00 0.00 0.00 79 1018.5
20260507115540 28 144 6.4 8.0 0.00 0.00 0.00 78 1018.5
20260507115036 27 108 6.4 9.7 0.00 0.00 0.00 80 1018.5
20260507114532 27 6 3.2 3.2 0.00 0.00 0.00 81 1018.4
20260507114030 27 2 0.0 0.0 0.00 0.00 0.00 82 1018.3
20260507113527 26 100 1.6 1.6 0.00 0.00 0.00 83 1018.2
20260507113024 26 196 1.6 3.2 0.00 0.00 0.00 83 1018.2
20260507112521 26 0 0.0 0.0 0.00 0.00 0.00 83 1018.1
20260507112018 26 44 1.6 1.6 0.00 0.00 0.00 84 1018.3
20260507111515 26 80 4.8 4.8 0.00 0.00 0.00 84 1018.1
20260507111011 26 10 3.2 3.2 0.00 0.00 0.00 83 1018.3
20260507110508 25 350 0.0 0.0 0.00 0.00 0.00 84 1018.2
20260507110005 25 351 0.0 0.0 0.00 0.00 0.00 85 1018.3
20260507105501 25 338 0.0 0.0 0.00 0.00 0.00 87 1017.9
20260507104958 25 337 1.6 1.6 0.00 0.00 0.00 88 1018.1
20260507104455 24 349 0.0 1.6 0.00 0.00 0.00 89 1018.0
20260507103950 24 4 1.6 1.6 0.00 0.00 0.00 90 1018.1
20260507103447 23 329 1.6 1.6 0.00 0.00 0.00 90 1018.2
20260507102944 23 333 1.6 1.6 0.00 0.00 0.00 91 1018.1
20260507102441 23 341 0.0 0.0 0.00 0.00 0.00 92 1017.9
20260507101937 23 345 0.0 0.0 0.00 0.00 0.00 92 1017.9
20260507101432 23 346 0.0 0.0 0.00 0.00 0.00 92 1017.9
20260507100929 23 344 0.0 0.0 0.00 0.00 0.00 92 1017.9
20260507100426 23 329 1.6 1.6 0.00 0.00 0.00 92 1017.6
20260507095925 23 228 1.6 3.2 0.00 0.00 0.00 92 1017.7
20260507095422 23 274 1.6 1.6 0.00 0.00 0.00 93 1017.6
20260507094919 23 52 0.0 1.6 0.00 0.00 0.00 93 1017.4
20260507094415 23 236 1.6 1.6 0.00 0.00 0.00 93 1017.4
20260507093912 23 240 3.2 3.2 0.00 0.00 0.00 93 1017.3
20260507093410 23 220 3.2 3.2 0.00 0.00 0.00 93 1017.4
20260507092908 23 303 1.6 1.6 0.00 0.00 0.00 93 1017.6
20260507092404 23 281 3.2 3.2 0.00 0.00 0.00 93 1017.4
20260507091900 23 341 1.6 1.6 0.00 0.00 0.00 93 1017.6
20260507091357 23 27 0.0 0.0 0.00 0.00 0.00 93 1017.5
20260507090852 23 27 0.0 0.0 0.00 0.00 0.00 93 1017.6
20260507090349 23 1 0.0 0.0 0.00 0.00 0.00 93 1017.7
20260507085846 23 303 1.6 1.6 0.00 0.00 0.00 93 1018.0
20260507085343 23 297 1.6 3.2 0.00 0.00 0.00 93 1017.7
20260507084840 23 297 1.6 1.6 0.00 0.00 0.00 93 1017.6
20260507084336 23 296 0.0 0.0 0.00 0.00 0.00 92 1017.8
20260507083834 23 302 1.6 3.2 0.00 0.00 0.00 91 1017.7
20260507083330 23 309 0.0 1.6 0.00 0.00 0.00 91 1017.6
20260507082827 23 309 0.0 0.0 0.00 0.00 0.00 91 1017.5
20260507082322 23 309 1.6 1.6 0.00 0.00 0.00 91 1017.8
20260507081820 23 311 0.0 1.6 0.00 0.00 0.00 90 1017.6
20260507081315 23 312 1.6 1.6 0.00 0.00 0.00 90 1017.6
20260507080812 23 312 0.0 0.0 0.00 0.00 0.00 90 1017.5
20260507080309 23 312 0.0 0.0 0.00 0.00 0.00 90 1017.6
20260507075804 23 312 1.6 1.6 0.00 0.00 0.00 90 1017.7
20260507075300 23 312 0.0 0.0 0.00 0.00 0.00 90 1017.4
20260507074757 23 312 0.0 0.0 0.00 0.00 0.00 90 1017.7
20260507074255 24 310 1.6 1.6 0.00 0.00 0.00 90 1017.6
20260507073752 24 237 1.6 1.6 0.00 0.00 0.00 90 1017.8
20260507073248 24 305 1.6 1.6 0.00 0.00 0.00 89 1017.5
20260507072746 24 229 1.6 3.2 0.00 0.00 0.00 89 1017.8
20260507072243 25 340 0.0 1.6 0.00 0.00 0.00 88 1017.9
20260507071740 25 6 0.0 0.0 0.00 0.00 0.00 89 1017.9
20260507071236 25 48 0.0 0.0 0.00 0.00 0.00 89 1017.9
20260507070734 25 41 0.0 0.0 0.00 0.00 0.00 89 1017.9
20260507070231 25 305 1.6 1.6 0.00 0.00 0.00 88 1017.7
20260507065727 25 23 0.0 0.0 0.00 0.00 0.00 89 1017.9
20260507065224 25 40 0.0 0.0 0.00 0.00 0.00 89 1017.9
20260507064721 25 301 1.6 1.6 0.00 0.00 0.00 89 1018.1
20260507064221 25 328 0.0 0.0 0.00 0.00 0.00 89 1018.3
20260507063717 25 328 0.0 0.0 0.00 0.00 0.00 88 1018.2
20260507063214 25 326 1.6 1.6 0.00 0.00 0.00 88 1018.3
20260507062711 25 342 0.0 0.0 0.00 0.00 0.00 89 1018.3
20260507062208 24 342 0.0 0.0 0.00 0.00 0.00 89 1018.3
20260507061706 24 342 0.0 0.0 0.00 0.00 0.00 88 1018.2
20260507061204 25 317 0.0 1.6 0.00 0.00 0.00 88 1018.4
20260507060702 25 315 1.6 1.6 0.00 0.00 0.00 88 1018.2
20260507060158 25 329 0.0 0.0 0.00 0.00 0.00 88 1018.3
20260507055654 25 341 0.0 0.0 0.00 0.00 0.00 88 1018.6
20260507055150 25 341 0.0 0.0 0.00 0.00 0.00 88 1018.7
20260507054646 25 331 0.0 0.0 0.00 0.00 0.00 88 1018.5
20260507054143 25 292 1.6 1.6 0.00 0.00 0.00 88 1018.7
20260507053641 25 172 3.2 4.8 0.00 0.00 0.00 87 1018.8
20260507053138 25 284 3.2 3.2 0.00 0.00 0.00 87 1018.8
20260507052637 25 319 0.0 1.6 0.00 0.00 0.00 87 1019.0
20260507052133 25 266 1.6 1.6 0.00 0.00 0.00 87 1019.0
20260507051630 25 328 1.6 1.6 0.00 0.00 0.00 87 1019.2
20260507051127 25 42 1.6 1.6 0.00 0.00 0.00 87 1019.0
20260507050624 25 134 1.6 1.6 0.00 0.00 0.00 87 1018.8
20260507050120 25 296 3.2 3.2 0.00 0.00 0.00 87 1019.2
20260507045618 25 222 4.8 4.8 0.00 0.00 0.00 87 1019.4
20260507045114 26 27 0.0 0.0 0.00 0.00 0.00 87 1019.4
20260507044611 26 105 3.2 4.8 0.00 0.00 0.00 87 1019.5
20260507044108 26 97 1.6 3.2 0.00 0.00 0.00 87 1019.6
20260507043604 26 144 3.2 3.2 0.00 0.00 0.00 87 1019.6
20260507043101 26 144 3.2 3.2 0.00 0.00 0.00 87 1019.7
20260507042557 26 58 1.6 1.6 0.00 0.00 0.00 86 1019.5
20260507042052 26 60 1.6 3.2 0.00 0.00 0.00 86 1019.9
20260507041550 26 65 1.6 3.2 0.00 0.00 0.00 86 1019.7
20260507041047 26 32 0.0 0.0 0.00 0.00 0.00 86 1020.0
20260507040543 26 33 0.0 0.0 0.00 0.00 0.00 86 1019.9
20260507040039 26 20 0.0 0.0 0.00 0.00 0.00 86 1020.0
20260507035535 26 36 1.6 1.6 0.00 0.00 0.00 86 1020.0
20260507035032 26 27 0.0 0.0 0.00 0.00 0.00 85 1020.1
20260507034529 26 85 3.2 3.2 0.00 0.00 0.00 85 1020.3
20260507034027 26 81 1.6 1.6 0.00 0.00 0.00 85 1020.0
20260507033524 26 159 6.4 8.0 0.00 0.00 0.00 85 1019.9
20260507033022 26 75 1.6 1.6 0.00 0.00 0.00 85 1020.1
20260507032518 26 137 3.2 3.2 0.00 0.00 0.00 84 1020.1
20260507032015 26 75 3.2 3.2 0.00 0.00 0.00 84 1020.2
20260507031511 26 52 1.6 1.6 0.00 0.00 0.00 84 1020.4
20260507031009 26 43 0.0 1.6 0.00 0.00 0.00 83 1020.2
20260507030505 26 70 1.6 1.6 0.00 0.00 0.00 84 1020.1
20260507030003 26 355 0.0 0.0 0.00 0.00 0.00 83 1020.1
20260507025459 26 42 1.6 1.6 0.00 0.00 0.00 83 1020.2
20260507024957 26 43 0.0 0.0 0.00 0.00 0.00 83 1020.2
20260507024454 26 33 1.6 1.6 0.00 0.00 0.00 83 1020.1
20260507023950 26 79 1.6 1.6 0.00 0.00 0.00 83 1020.1
20260507023447 26 12 0.0 0.0 0.00 0.00 0.00 82 1020.4
20260507022944 26 45 0.0 1.6 0.00 0.00 0.00 82 1019.9
20260507022442 26 72 1.6 1.6 0.00 0.00 0.00 82 1020.0
20260507021936 26 68 1.6 1.6 0.00 0.00 0.00 81 1020.0
20260507021432 26 89 0.0 1.6 0.00 0.00 0.00 81 1019.9
20260507020930 26 119 3.2 3.2 0.00 0.00 0.00 81 1019.9
20260507020426 26 104 1.6 3.2 0.00 0.00 0.00 81 1019.8
20260507015924 26 43 1.6 1.6 0.00 0.00 0.00 80 1019.8
20260507015422 26 135 4.8 8.0 0.00 0.00 0.00 80 1019.7
20260507014918 26 124 1.6 3.2 0.00 0.00 0.00 80 1019.7
20260507014414 26 62 1.6 1.6 0.00 0.00 0.00 80 1019.3
20260507013910 26 108 1.6 3.2 0.00 0.00 0.00 79 1019.4
20260507013408 27 84 1.6 3.2 0.00 0.00 0.00 79 1019.5
20260507012906 27 57 1.6 1.6 0.00 0.00 0.00 79 1019.6
20260507012401 27 17 0.0 0.0 0.00 0.00 0.00 79 1019.4
20260507011853 27 199 4.8 4.8 0.00 0.00 0.00 79 1019.3
20260507011349 27 128 4.8 4.8 0.00 0.00 0.00 79 1019.5
20260507010844 27 174 4.8 4.8 0.00 0.00 0.00 79 1019.5
20260507010340 27 153 8.0 9.7 0.00 0.00 0.00 79 1019.3
20260507005837 27 30 0.0 0.0 0.00 0.00 0.00 78 1019.3
20260507005334 27 94 4.8 8.0 0.00 0.00 0.00 78 1019.3
20260507004831 27 54 1.6 1.6 0.00 0.00 0.00 78 1019.3
20260507004328 27 92 3.2 4.8 0.00 0.00 0.00 78 1019.2
20260507003825 27 36 0.0 1.6 0.00 0.00 0.00 77 1019.1
20260507003321 27 75 1.6 1.6 0.00 0.00 0.00 77 1019.0
20260507002815 27 51 4.8 4.8 0.00 0.00 0.00 77 1019.1
20260507002311 27 60 1.6 1.6 0.00 0.00 0.00 76 1019.2
20260507001803 27 135 4.8 4.8 0.00 0.00 0.00 76 1019.2
20260507001300 27 156 6.4 8.0 0.00 0.00 0.00 76 1018.9
20260507000756 27 55 1.6 1.6 0.00 0.00 0.00 76 1018.9
20260507000252 27 48 1.6 1.6 0.00 0.00 0.00 75 1018.8
20260506235749 27 131 4.8 8.0 0.00 0.00 0.00 75 1018.5
20260506235244 27 128 1.6 3.2 0.00 0.00 0.00 75 1018.5
20260506234742 27 119 8.0 11.3 0.00 0.00 0.00 74 1018.5
20260506234239 27 43 1.6 3.2 0.00 0.00 0.00 74 1018.1
20260506233737 28 130 6.4 11.3 0.00 0.00 0.00 73 1018.2
20260506233233 28 352 1.6 1.6 0.00 0.00 0.00 72 1018.4
20260506232730 28 51 1.6 1.6 0.00 0.00 0.00 72 1018.2
20260506232224 28 162 4.8 8.0 0.00 0.00 0.00 71 1018.0
20260506231722 28 92 4.8 4.8 0.00 0.00 0.00 71 1017.9
20260506231220 28 141 6.4 8.0 0.00 0.00 0.00 71 1017.8
20260506230716 28 207 4.8 8.0 0.00 0.00 0.00 70 1017.8
20260506230214 28 238 3.2 3.2 0.00 0.00 0.00 70 1018.0
20260506225710 28 94 3.2 4.8 0.00 0.00 0.00 70 1017.7
20260506225207 28 77 3.2 4.8 0.00 0.00 0.00 70 1017.6
20260506224703 28 30 3.2 8.0 0.00 0.00 0.00 69 1017.6
20260506224201 28 104 8.0 11.3 0.00 0.00 0.00 69 1017.6
20260506223657 29 156 3.2 4.8 0.00 0.00 0.00 68 1017.5
20260506223152 29 118 3.2 4.8 0.00 0.00 0.00 68 1017.4
20260506222650 29 113 11.3 16.1 0.00 0.00 0.00 67 1017.1
20260506222145 30 67 9.7 16.1 0.00 0.00 0.00 67 1016.9
20260506221644 30 353 1.6 3.2 0.00 0.00 0.00 67 1017.3